Wind_Speed
22 23 23 19 16 22 21 26 20 28 23 26 26 32 35 33 27 27 29 26 23 20
20 20 23 24 24 27 28 30 27 26 19 19 19 21 21 20 19 19 20 20 21 21
12 11 12 10 12 13 15 13 14 13 9 9 10 12 12 15 19 21 22 23 23 20
7 6 6 8 6 8 7 7 7 7 6 7 9 9 12 13 14 19 21 22 22 24
8 8 6 5 5 4 4 3 4 5 6 7 8 10 9 8 11 13 17 18 16 18
8 8 6 6 5 4 3 2 1 2 4 5 7 7 8 8 10 10 9 11 13 14
8 8 7 6 5 4 4 3 3 2 2 3 4 5 6 8 8 8 8 9 9 9
8 8 7 6 6 5 4 3 3 3 2 2 3 4 4 4 4 6 6 8 9 10
8 7 6 6 5 5 4 3 3 3 2 2 4 7 8 7 8 9 10 9 8 7
8 7 6 5 4 3 2 1 2 3 4 2 3 5 5 8 8 9 10 12 12 11
8 7 7 6 5 4 4 3 1 3 4 4 3 2 4 5 8 11 12 12 11 12
7 7 6 5 6 5 5 6 5 5 4 4 4 3 6 9 12 13 12 10 10 9
8 8 8 7 8 7 5 5 5 5 4 4 6 6 7 9 12 11 10 9 10 8
8 7 7 6 7 6 7 6 6 6 6 6 6 7 9 9 9 11 11 11 10 9
Wind_Direction
214 204 199 199 202 233 251 257 258 230 231 236 238 247 261 252 247 244 242 241 235 234
208 217 221 212 207 215 225 232 237 243 229 233 235 243 243 242 249 242 240 241 238 236
212 209 211 209 204 207 209 211 205 222 223 229 240 245 249 252 254 253 256 253 249 234
148 162 177 166 162 178 189 197 207 215 228 248 251 255 255 251 255 252 253 253 241 242
133 129 132 132 147 152 184 206 222 236 240 246 253 253 260 262 262 255 248 246 230 232
133 134 134 129 128 130 136 158 236 242 246 249 258 261 262 257 256 242 230 224 221 220
135 137 134 123 116 109 119 135 154 174 212 237 255 246 252 244 237 235 220 207 207 203
137 131 130 134 136 142 149 156 170 189 218 223 229 247 237 222 229 225 204 191 192 186
140 141 141 143 146 150 160 177 182 195 211 235 259 260 250 235 221 211 198 180 169 157
158 151 152 156 150 148 154 221 241 215 201 222 262 276 244 228 224 206 188 172 157 150
170 171 171 169 165 176 194 185 260 264 225 206 236 213 225 200 185 169 161 161 158 151
185 185 182 184 194 196 200 205 205 229 224 199 186 188 165 174 168 159 152 151 146 155
198 196 199 197 217 220 217 218 202 206 216 207 188 179 186 173 169 160 150 150 149 144
200 202 210 204 217 201 196 199 189 198 202 207 206 196 189 181 180 171 160 160 157 165
Height
793 795 796 801 803 810 813 815 815 815 815 816 818 822 823 824 823 824 827 828 829 830
787 791 794 795 798 803 806 806 810 813 809 811 815 818 818 818 817 818 820 821 824 825
784 787 789 791 793 796 800 804 805 809 808 810 812 815 814 813 815 816 816 818 820 819
784 786 789 790 793 796 798 800 802 803 805 808 809 811 811 811 812 812 813 814 813 815
783 785 789 791 792 794 797 799 800 801 803 805 807 808 808 807 808 807 809 809 809 812
783 785 789 791 793 795 796 797 798 801 803 803 804 804 805 805 806 807 804 806 808 807
784 787 790 790 792 794 796 798 801 802 803 804 804 804 804 804 805 804 803 802 805 806
786 787 788 791 793 796 799 799 799 801 802 802 802 802 802 802 800 801 802 801 803 805
785 787 789 792 794 796 797 798 797 798 799 800 799 798 799 799 799 799 799 801 803 805
785 786 789 791 792 793 795 797 797 796 795 796 796 796 795 796 799 799 800 801 802 806
783 786 788 789 790 793 795 795 795 796 793 793 795 795 795 795 798 799 800 802 803 805
781 783 785 788 790 793 793 793 793 794 794 793 794 795 795 797 798 800 800 803 804 807
780 782 784 787 787 788 790 790 790 791 793 794 794 797 798 798 798 800 801 803 804 808
778 781 784 785 785 786 788 788 789 791 793 794 795 795 796 798 799 800 802 803 805 809